Volver al catálogo

PERSAT01

ActivoComunicacionesSSO
NORAD 66656·PAYLOAD·🇰🇷 South Korea

Lanzado Nov 26, 2025 desde Naro Space Center

Loading…

Próximos Pases (próximas 24 horas)

TLE

ActualizadoSource: Space-Track

Época: Sep 14, 2026, 14:02 UTC

1 66656U 25274G   26257.58516525  .00001385  00000-0  13608-3 0  9996
2 66656  97.7478 185.5428 0015123  63.1497 297.1267 14.93681853 43568

Sigue PERSAT01 en tiempo real con AllMySat

Download on the App Store